Home   Weather   Fairfield   Past weeks
Flag for USA

Past Weather in Fairfield, Vermont, USA — Yesterday and Last 2 Weeks

Now
46 °F

Mostly cloudy.


Feels Like: 45 °F
Forecast: 44 / 38 °F
Wind: 3 mph from West

Location: Burlington International Airport

Current Time: Dec 14, 2019 at 2:30:20 pm

Latest Report: Dec 14, 2019 at 2:03 pm


Visibility: 10 mi

Pressure: 29.24 "Hg

Humidity: 86%

Dew Point: 42 °F

Location of FairfieldLocation

Past Weather in Fairfield — Graph

°F

Fairfield Temperature Yesterday

Maximum temperature yesterday: 40 °F (at 1:30 pm)
Minimum temperature yesterday: 29 °F (at 12:54 am)
Average temperature yesterday: 35 °F

High & Low Weather Summary for the Past Weeks

 TemperatureHumidityPressure
High51 °F (Dec 10, 9:54 am)100% (Dec 14, 9:08 am)30.70 "Hg (Dec 14, 9:08 am)
Low6 °F (Dec 8, 5:54 am)40% (Dec 13, 3:54 am)29.33 "Hg (Dec 14, 12:54 pm)
Average29 °F71%29.98 "Hg
* Reported Nov 29 12:02 pm — Dec 14 12:54 pm, Fairfield. Weather by CustomWeather, © 2019

Note: Actual official high and low records may vary slightly from our data, if they occured in-between our weather recording intervals... More about our weather records

Fairfield Weather History for the Previous 24 Hours

Scroll right to see more
 ConditionsComfort  
Time TempWeatherWind HumidityBarometerVisibility
12:54 pm
Sat, Dec 14
45 °FOvercast.7 mph90%29.33 "Hg10 mi
12:03 pm44 °FFog.7 mph89%29.37 "Hg5 mi
11:13 am42 °FFog.7 mph92%29.42 "Hg1 mi
11:05 am42 °FFog.7 mph96%29.44 "Hg1 mi
10:30 am42 °FLight rain. Fog.6 mph89%29.49 "Hg0 mi
10:10 am42 °FLight rain. Fog.7 mph89%29.51 "Hg1 mi
9:54 am42 °FLight rain. Fog.5 mph96%29.54 "Hg1 mi
9:36 am41 °FLight rain. Fog.3 mph96%29.53 "Hg1 mi
9:21 am41 °FLight rain. Fog.9 mph96%29.55 "Hg1 mi
9:08 am40 °FLight rain. Fog.6 mph100%29.57 "Hg1 mi
8:20 am40 °FLight rain. Fog.9 mph93%29.61 "Hg1 mi
7:57 am40 °FLight rain. Fog.6 mph89%29.63 "Hg1 mi
6:54 am44 °FLight rain. Overcast.5 mph85%29.69 "Hg10 mi
5:54 am39 °FLight rain. Mostly cloudy.No wind93%29.75 "Hg9 mi
4:54 am38 °FLight rain. Overcast.3 mph93%29.81 "Hg10 mi
3:54 am38 °FLight rain. Overcast.No wind93%29.86 "Hg8 mi
2:54 am38 °FFog.No wind93%29.93 "Hg5 mi
1:54 am39 °FOvercast.5 mph93%29.97 "Hg7 mi
1:21 am39 °FFog.No wind93%29.99 "Hg5 mi
12:54 am39 °FOvercast.6 mph89%30.01 "Hg10 mi
11:54 pm
Fri, Dec 13
37 °FOvercast.3 mph93%30.05 "Hg10 mi
10:54 pm37 °FLight rain. Mostly cloudy.3 mph93%30.09 "Hg10 mi
10:33 pm37 °FLight rain. Mostly cloudy.5 mph89%30.09 "Hg10 mi
10:04 pm37 °FLight rain. Mostly cloudy.5 mph93%30.10 "Hg10 mi
9:14 pm36 °FLight rain. Mostly cloudy.7 mph89%30.13 "Hg10 mi
8:54 pm36 °FLight rain. Overcast.5 mph89%30.15 "Hg9 mi
7:54 pm36 °FLight rain. Overcast.7 mph85%30.17 "Hg10 mi
6:54 pm36 °FMostly cloudy.5 mph85%30.21 "Hg10 mi
5:54 pm36 °FLight rain. Overcast.7 mph82%30.22 "Hg10 mi
5:20 pm36 °FMostly cloudy.6 mph75%30.22 "Hg10 mi
4:54 pm37 °FMostly cloudy.8 mph73%30.24 "Hg10 mi
3:54 pm37 °FBroken clouds.9 mph70%30.25 "Hg10 mi
2:54 pm38 °FOvercast.14 mph68%30.27 "Hg10 mi
Weather by CustomWeather, © 2019

See weather overview

Advertising